Voltar ao catálogo

QIANFAN-60

AtivoComunicaçõesPO
NORAD 62790·PAYLOAD·🇨🇳 China

Lançado Jan 23, 2025 de Taiyuan Satellite Launch Center

Loading…

Próximas Passagens (próximas 24 horas)

TLE

AtualizadoSource: Space-Track

Época: Sep 14, 2026, 21:16 UTC

1 62790U 25016F   26257.88652718  .00000046  00000-0  53212-4 0  9992
2 62790  88.9648  74.3503 0013912 265.2625  94.6938 13.51027700 84518

Acompanhe QIANFAN-60 em tempo real com AllMySat

Download on the App Store